Lid_Strength_Index
8 8 8 7 6 5 5 6 5 3 1 1 1 1 1 2 3 4 4 4 3 3 3 3 3 3 2 2 2 1 2 1 1 3 2 2 1 1 1 0 1 1 1
8 8 7 6 7 7 7 7 6 5 3 1 1 1 3 4 4 4 5 5 6 6 6 6 6 5 5 5 4 4 4 3 2 3 3 5 3 1 1 1 1 1 0
8 7 7 8 8 8 8 7 7 6 6 4 3 3 4 4 5 6 7 7 7 7 7 6 6 6 6 6 6 5 6 7 5 4 5 6 7 5 3 2 1 1 1
8 8 8 8 8 8 7 7 7 7 6 5 5 5 6 7 7 8 8 8 7 7 7 7 7 7 7 7 7 7 7 7 8 6 5 5 5 8 8 6 4 3 2
8 9 9 8 8 8 8 8 7 7 6 6 6 7 8 8 9 9 9 8 8 8 8 8 8 8 8 8 8 8 8 7 7 7 7 7 6 6 6 8 7 5 4
9 9 9 8 9 8 8 7 8 8 7 7 8 8 9 10 10 10 10 10 9 9 10 10 10 9 9 9 9 8 8 8 7 7 7 7 7 8 8 8 8 8 6
9 9 9 8 8 8 8 7 7 8 8 9 10 10 11 11 11 11 11 12 12 11 11 11 11 11 11 11 10 10 9 9 8 8 7 7 8 8 8 8 8 8 7
8 8 8 8 8 8 8 8 8 9 10 11 11 12 11 12 12 12 12 13 13 12 12 12 12 12 12 12 11 11 9 10 9 8 9 9 10 9 8 8 8 9 9
9 8 9 8 8 8 9 9 10 11 11 11 12 13 13 13 13 13 13 13 13 13 13 13 13 13 13 12 12 12 11 11 11 10 10 10 10 8 7 5 5 6 8
9 9 9 8 9 10 10 10 11 11 11 12 13 13 13 14 14 14 14 14 14 14 14 14 14 13 13 13 13 13 12 12 12 11 11 10 9 8 6 5 5 5 7
9 9 9 9 10 11 11 11 12 12 12 13 14 14 14 14 14 15 15 15 14 15 15 14 14 14 14 14 13 13 13 13 12 11 11 10 8 8 7 6 6 7 8
9 9 9 10 11 12 12 12 13 12 13 14 14 15 15 15 15 15 15 15 15 15 15 15 15 15 14 14 14 14 13 13 13 11 10 9 8 8 8 7 8 8 7
10 10 10 10 11 12 13 13 13 13 14 15 15 15 16 16 16 16 15 15 15 15 15 15 15 15 14 14 14 13 13 12 11 10 8 9 9 9 8 8 8 7 7
10 10 10 11 12 12 13 13 14 14 15 15 16 16 16 16 16 15 15 15 15 15 15 15 15 15 14 14 14 13 12 11 9 9 9 9 9 9 8 8 7 7 7
11 10 10 11 12 13 13 14 15 15 15 16 16 16 16 16 16 16 16 16 16 15 15 15 15 14 14 14 12 11 10 9 9 9 9 9 8 7 6 7 7 7 7
10 10 10 11 13 13 14 14 15 16 16 16 17 16 16 16 16 16 16 16 16 15 15 15 15 15 14 11 9 8 9 9 9 10 9 8 7 7 6 5 5 5 6
11 10 11 11 13 14 14 15 16 16 16 17 17 17 17 17 16 16 16 16 16 16 15 15 15 14 13 10 8 8 9 9 10 9 9 8 7 7 7 6 6 5 4
11 10 11 13 14 14 15 16 16 17 17 17 17 17 17 17 17 17 17 16 16 16 16 15 14 13 12 9 8 8 9 9 9 8 8 8 7 6 7 7 7 7 6
10 10 12 14 15 15 16 17 17 18 18 18 18 17 17 17 17 17 17 16 16 15 15 14 13 12 12 9 9 9 9 9 9 8 7 7 7 6 6 7 8 8 7
11 13 14 15 16 17 17 17 18 18 18 18 18 17 17 17 17 17 16 16 15 15 14 14 12 11 12 10 9 9 9 9 9 8 7 7 7 6 5 8 9 10 9
13 14 15 15 17 17 17 17 18 18 18 18 18 17 17 17 16 16 16 15 15 15 14 13 12 12 11 10 8 8 9 9 9 8 9 8 6 5 6 7 9 9 8
14 15 16 17 17 16 17 18 19 18 18 18 18 17 17 17 16 16 15 15 15 14 14 13 12 11 10 9 9 8 7 7 8 9 8 7 5 6 7 8 8 8 8
15 15 16 17 18 18 18 19 18 18 18 18 18 17 17 16 16 16 15 15 14 14 13 13 12 12 11 10 9 8 7 7 8 8 7 7 7 7 8 8 8 9 10
15 16 17 18 18 17 18 19 19 18 18 18 18 17 17 15 15 15 15 14 14 13 13 12 12 12 11 11 10 9 8 8 8 7 9 9 9 8 9 10 10 10 10
15 16 17 18 18 18 19 19 18 18 18 18 17 17 17 17 16 15 14 13 12 11 12 11 11 12 12 11 8 8 9 8 8 9 10 10 10 11 11 11 11 11 11
17 18 18 18 18 19 19 18 18 18 18 18 17 17 16 16 15 15 14 11 10 9 9 9 10 10 9 8 8 8 7 7 8 11 12 12 12 12 12 12 13 13 13